Back to catalog

STARLINK-30843

AliveCommunicationsVLEO
NORAD 58241·PAYLOAD·🇺🇸 United States

Launched Nov 8, 2023 from Cape Canaveral Space Force Station

Loading…

Next Passes (next 24 hours)

TLE

FreshSource: CelesTrak SupGP

Epoch: Sep 14, 2026, 13:50 UTC

1 58241C 23171M   26257.57687500  .00047985  00000+0  17383-2 0  2577
2 58241  43.0003 298.6278 0001440 275.1599 339.6540 15.27549540    14

Track STARLINK-30843 in real time with AllMySat

Download on the App Store